Погода в Елизаветовке

Россия / Ростовская область     46°39′18″N   38°53′42″E
темп.,
°C
ветер,
м/с
пор.,
м/с
влажн.,
%
обл.,
%
осадки,
мм/ч
давл.,
гПа
погр.,
м
13 мая, чт
чт1300:00+11вюв228959 0.0 101322
03:00+10юв229131 0.0 101314
06:00+11вюв23905 0.0 101345
09:00+17юв22715 0.0 1013427
12:00+21вюв335761 0.0 1013852
15:00+23вюв4453100 0.0 10131085
18:00+21вюв3675100 0.0 1013196
21:00+17в45865 0.0 101362
14 мая, пт
пт1400:00+15в411892 0.0 1012192
03:00+14в412915 0.0 1011209
06:00+15юв412855 0.0 1011258
09:00+20юв467086 0.0 1011356
12:00+26юв3456100 0.0 1011657
15:00+28ю335090 0.0 1010894
18:00+26з226640 0.0 101071
21:00+17сз33803 0.9 101143
15 мая, сб
сб1500:00+16сз33750 0.4 101132
03:00+15з46811 0.8 101378
06:00+15ссв49810 0.0 1013133
09:00+21ссз346496 0.0 1014360
12:00+24сз335311 0.0 1014703
15:00+25сз32475 0.0 1014875
18:00+23ссз23615 0.0 1013126
21:00+18с22665 0.0 101314
16 мая, вс
вс1600:00+17с3368100 0.0 101233
03:00+17ссв3572100 0.0 101180
06:00+17всв36875 0.0 1011138
09:00+22всв45672 0.0 1010448
12:00+26св45572 0.0 1009826
15:00+27в6657100 0.0 10081123
18:00+24всв476897 0.0 1007303
21:00+20в4881100 0.0 1006118
17 мая, пн
пн1700:00+18в4127829 0.0 1005243
03:00+16в412635 0.0 1005223
06:00+14в410715 0.0 1005207
09:00+20в68605 0.0 1006355
12:00+25юв44545 0.0 1006777
15:00+26ююв22555 0.0 10061042
18:00+25юв2367100 0.0 1006259
21:00+18з4983100 0.1 1008204